Weather History for Monroe, LA

Change the Weather History Date:

Sunday, June 2, 2013

  Actual Average Record
Temperature  
Mean Temperature 75 °F 78 °F  
Max Temperature 82 °F 89 °F 101 °F (2011)
Min Temperature 68 °F 67 °F 54 °F (1993)
Degree Days  
Heating Degree Days 0 0  
Month to date heating degree days 0 0  
Since 1 June heating degree days 0 0  
Since 1 July heating degree days 2205 2230  
Cooling Degree Days 10 13  
Month to date cooling degree days 25 26  
Year to date cooling degree days 375 461  
Since 1 June cooling degree days 25 26  
Growing Degree Days 24 (Base 50)    
Moisture  
Dew Point 68 °F    
Average Humidity 82    
Maximum Humidity 97    
Minimum Humidity 67    
Precipitation  
Precipitation 0.64 in 0.15 in 2.43 in (2004)
Month to date precipitation 1.72 0.30  
Year to date precipitation 26.73 24.35  
Snow  
Snow 0.00 in - - ()
Month to date snowfall 0.0  
Since 1 June snowfall 0.0  
Since 1 July snowfall 0.3  
Snow Depth 0.00 in    
Sea Level Pressure  
Sea Level Pressure 29.95 in    
Wind  
Wind Speed 5 mph (NNW)    
Max Wind Speed 22 mph    
Max Gust Speed 29 mph    
Visibility 9 miles    
Events Rain , Thunderstorm    
T = Trace of Precipitation, MM = Missing Value Source: NWS Daily Summary

Daily Weather History Graph

Daily Weather History Graph

Search for Another Location

Airport:

Trip Planner

Search our weather history database for the weather conditions in past years. The results will help you decide how hot, cold, wet, or windy it might be!

Date:

Astronomy

Jun. 02, 2013 Rise Set
Actual Time 6:01 AM CDT 8:11 PM CDT
Civil Twilight 5:33 AM CDT 8:39 PM CDT
Nautical Twilight 4:58 AM CDT 9:13 PM CDT
Astronomical Twilight 4:22 AM CDT 9:50 PM CDT
Moon 2:10 AM CDT (6/2) 2:58 PM CDT (6/2)
Length of Visible Light 15h 06m
Length of Day
14h 10m
Waning Crescent, 30% of the Moon is Illuminated
Jun 2
Waning Crescent
Jun 8
New
Jun 16
First Quarter
Jun 23
Full
Jun 29
Last Quarter

Hourly Weather History & Observations

Time (CDT) Temp. Heat Index Dew Point Humidity Pressure Visibility Wind Dir Wind Speed Gust Speed Precip Events Conditions
12:34 AM 68.0 °F - 66.2 °F 94% 29.98 in 9.0 mi North 8.1 mph - 0.07 in Rain , Thunderstorm Light Rain
12:53 AM 68.0 °F - 66.9 °F 96% 29.93 in 10.0 mi ENE 9.2 mph - 0.07 in Rain , Thunderstorm Light Rain
1:08 AM 69.8 °F - 66.2 °F 88% 29.94 in 10.0 mi ENE 6.9 mph - 0.00 in Rain Light Rain
1:36 AM 69.8 °F - 66.2 °F 88% 29.95 in 10.0 mi East 4.6 mph - 0.00 in Thunderstorm Mostly Cloudy
1:53 AM 69.1 °F - 66.9 °F 93% 29.98 in 10.0 mi NNW 3.5 mph - 0.00 in Rain , Thunderstorm Light Thunderstorms and Rain
2:04 AM 69.8 °F - 68.0 °F 94% 29.99 in 2.5 mi West 8.1 mph - 0.09 in Rain , Thunderstorm Heavy Thunderstorms and Rain
2:23 AM 69.8 °F - 68.0 °F 94% 29.98 in 1.0 mi SSW 9.2 mph - 0.34 in Rain , Thunderstorm Heavy Thunderstorms and Rain
2:43 AM 68.0 °F - 66.2 °F 94% 29.91 in 2.0 mi SSE 17.3 mph 28.8 mph 0.61 in Rain , Thunderstorm Heavy Thunderstorms and Rain
2:53 AM 69.1 °F - 66.9 °F 93% 29.96 in 6.0 mi SSW 13.8 mph 19.6 mph 0.63 in Rain , Thunderstorm Light Thunderstorms and Rain
3:22 AM 69.8 °F - 66.2 °F 88% 29.90 in 10.0 mi Variable 4.6 mph 25.3 mph 0.01 in Rain , Thunderstorm Light Thunderstorms and Rain
3:36 AM 69.8 °F - 66.2 °F 88% 29.91 in 10.0 mi NE 3.5 mph - 0.01 in Rain Light Rain
3:53 AM 68.0 °F - 66.9 °F 96% 29.92 in 10.0 mi WNW 4.6 mph - 0.01 in Thunderstorm Clear
4:11 AM 69.8 °F - 66.2 °F 88% 29.92 in 10.0 mi Calm Calm - N/A   Clear
4:53 AM 69.1 °F - 66.9 °F 93% 29.95 in 10.0 mi East 3.5 mph - N/A   Overcast
5:00 AM 69.8 °F - 66.2 °F 88% 29.95 in 10.0 mi ENE 4.6 mph - N/A   Overcast
5:19 AM 69.8 °F - 66.2 °F 88% 29.96 in 10.0 mi East 3.5 mph - N/A   Overcast
5:27 AM 69.8 °F - 66.2 °F 88% 29.96 in 10.0 mi ENE 3.5 mph - N/A   Overcast
5:53 AM 69.1 °F - 66.9 °F 93% 29.98 in 10.0 mi Calm Calm - N/A   Overcast
6:23 AM 69.8 °F - 66.2 °F 88% 29.98 in 10.0 mi Calm Calm - 0.00 in Rain Light Rain
6:53 AM 70.0 °F - 68.0 °F 93% 29.98 in 10.0 mi Calm Calm - 0.00 in   Overcast
7:14 AM 69.8 °F - 68.0 °F 94% 29.97 in 10.0 mi Calm Calm - N/A   Overcast
7:24 AM 69.8 °F - 68.0 °F 94% 29.97 in 10.0 mi Calm Calm - N/A   Mostly Cloudy
7:53 AM 70.0 °F - 68.0 °F 93% 29.96 in 10.0 mi South 3.5 mph - N/A   Clear
8:17 AM 71.6 °F - 68.0 °F 88% 29.96 in 10.0 mi Calm Calm - N/A   Mostly Cloudy
8:41 AM 71.6 °F - 69.8 °F 94% 29.97 in 10.0 mi SSW 5.8 mph - N/A   Mostly Cloudy
8:53 AM 71.1 °F - 69.1 °F 93% 29.97 in 10.0 mi Variable 3.5 mph - N/A   Mostly Cloudy
9:25 AM 73.4 °F - 69.8 °F 88% 29.98 in 10.0 mi SW 3.5 mph - N/A   Overcast
9:38 AM 73.4 °F - 69.8 °F 88% 29.99 in 10.0 mi WSW 5.8 mph - N/A   Overcast
9:46 AM 73.4 °F - 69.8 °F 88% 29.98 in 10.0 mi WSW 5.8 mph - N/A   Overcast
9:53 AM 75.0 °F - 69.1 °F 82% 29.98 in 10.0 mi West 6.9 mph - N/A   Mostly Cloudy
10:53 AM 77.0 °F - 70.0 °F 79% 29.98 in 10.0 mi WNW 10.4 mph - N/A   Mostly Cloudy
11:13 AM 78.8 °F - 69.8 °F 74% 29.97 in 10.0 mi WNW 8.1 mph - N/A   Mostly Cloudy
11:53 AM 79.0 °F - 70.0 °F 74% 29.96 in 10.0 mi NW 8.1 mph - N/A   Partly Cloudy
12:27 PM 78.8 °F - 69.8 °F 74% 29.96 in 10.0 mi WNW 5.8 mph - N/A   Mostly Cloudy
12:51 PM 78.8 °F - 69.8 °F 74% 29.96 in 10.0 mi NNW 8.1 mph - N/A   Mostly Cloudy
12:53 PM 80.1 °F 83.6 °F 71.1 °F 74% 29.96 in 10.0 mi NNW 10.4 mph - N/A   Mostly Cloudy
1:03 PM 78.8 °F - 71.6 °F 78% 29.96 in 10.0 mi NW 9.2 mph - N/A   Mostly Cloudy
1:10 PM 80.6 °F 83.9 °F 69.8 °F 70% 29.96 in 10.0 mi NW 10.4 mph - N/A   Mostly Cloudy
1:53 PM 81.0 °F 84.4 °F 70.0 °F 69% 29.95 in 10.0 mi NW 5.8 mph - N/A   Mostly Cloudy
2:51 PM 80.6 °F 83.9 °F 69.8 °F 70% 29.94 in 10.0 mi NNW 8.1 mph - N/A   Overcast
2:53 PM 80.1 °F 83.2 °F 70.0 °F 71% 29.94 in 10.0 mi North 8.1 mph - N/A   Overcast
3:00 PM 80.6 °F 83.9 °F 69.8 °F 70% 29.94 in 10.0 mi North 6.9 mph - N/A   Overcast
3:53 PM 80.1 °F 82.9 °F 69.1 °F 69% 29.93 in 10.0 mi North 8.1 mph - N/A   Overcast
4:53 PM 78.1 °F - 68.0 °F 71% 29.93 in 10.0 mi North 8.1 mph - N/A   Overcast
5:53 PM 79.0 °F - 69.1 °F 72% 29.92 in 10.0 mi North 5.8 mph - N/A   Overcast
6:53 PM 80.1 °F 82.7 °F 68.0 °F 67% 29.91 in 10.0 mi North 5.8 mph - N/A   Overcast
7:53 PM 77.0 °F - 68.0 °F 74% 29.91 in 10.0 mi NE 4.6 mph - N/A   Clear
8:53 PM 72.0 °F - 68.0 °F 87% 29.92 in 10.0 mi Calm Calm - N/A   Clear
9:53 PM 70.0 °F - 68.0 °F 93% 29.94 in 10.0 mi Calm Calm - N/A   Clear
10:53 PM 71.1 °F - 68.0 °F 90% 29.94 in 10.0 mi Calm Calm - N/A   Clear
11:53 PM 69.1 °F - 66.0 °F 90% 29.94 in 10.0 mi Calm Calm - N/A   Clear